Regional Weather Roundup
Issued by NWS

Home | Current Version | Previous Version | Text Only | Print | Product List | Glossary Off
Versions: 1 2 3 4 5 6 7 8 9 10 11 12 13 14 15 16 17 18 19 20 21 22 23 24 25 26 27 28 29 30 31 32 33 34 35 36 37 38 39 40 41 42 43 44 45 46 47 48 49 50

922
ASUS43 KOAX 232102
RWRNE

WEATHER ROUNDUP FOR NEBRASKA
NATIONAL WEATHER SERVICE OMAHA NE
300 PM CST FRI FEB 23 2018

NOTES: SATELLITE DATA IS BEING USED TO AUGMENT CLOUD COVER ABOVE
       12000 FEET.
       "FAIR" INDICATES FEW OR NO CLOUDS BELOW 12,000 FEET WITH NO
       SIGNIFICANT WEATHER AND/OR OBSTRUCTIONS TO VISIBILITY.


NEZ001>004-019>022-054>056-232200-
NEBRASKA PANHANDLE

CITY           SKY/WX    TMP DP  RH WIND       PRES   REMARKS
SCOTTSBLUFF    SUNNY     24  11  57 E14       30.07F WCI  12
ALLIANCE       SUNNY     21  13  71 SE6       30.08F WCI  13
CHADRON        MOSUNNY   19   9  65 CALM      30.12F
GORDON         FAIR      20   7  56 SE3       30.11F
KIMBALL        MOSUNNY   30  17  58 SE13      30.00F WCI  20
SIDNEY         SUNNY     31  15  52 E12       30.05F WCI  22
$$

NEZ057>060-069>072-079>082-232200-
SOUTHWEST NEBRASKA

CITY           SKY/WX    TMP DP  RH WIND       PRES   REMARKS
NORTH PLATTE   SUNNY     27  18  69 E7        30.17F WCI  19
IMPERIAL       SUNNY     30  20  66 NE12      30.11F WCI  20
LEXINGTON      CLOUDY    26  22  82 NE5       30.20F WCI  21
MCCOOK         SUNNY     37  24  59 E8        30.14F WCI  31
OGALLALA       SUNNY     29  18  62 E9        30.12F WCI  20
$$

NEZ005>010-023>029-035>040-094-232200-
NORTH CENTRAL NEBRASKA

CITY           SKY/WX    TMP DP  RH WIND       PRES   REMARKS
VALENTINE      CLOUDY    22  10  60 CALM      30.19F
AINSWORTH      SUNNY     21  14  72 CALM      30.21F
BROKEN BOW     SUNNY     24  17  74 N3        30.20F
O`NEILL        MOSUNNY   20  15  81 S3        30.26F
ORD            MOSUNNY   27  17  66 CALM      30.24F
THEDFORD       SUNNY     25  15  65 CALM      30.19F
$$

NEZ041-046>049-061>064-073>077-083>087-232200-
SOUTH CENTRAL NEBRASKA

CITY           SKY/WX    TMP DP  RH WIND       PRES   REMARKS
GRAND ISLAND   CLOUDY    26  21  81 VRB5      30.25F WCI  20
AURORA         CLOUDY    26  22  85 NE6       30.25F WCI  20
HASTINGS       CLOUDY    28  22  78 NE9       30.23F WCI  19
HEBRON         CLOUDY    33  27  81 N7        30.26S WCI  26
HOLDREGE       SUNNY     33  24  70 E8        30.19F WCI  26
KEARNEY        CLOUDY    27  22  81 NE6       30.23F WCI  20
YORK           PTSUNNY   27  25  93 N8        30.27S WCI  18
$$

NEZ011>018-030>034-042>045-232200-
NORTHEAST NEBRASKA

CITY           SKY/WX    TMP DP  RH WIND       PRES   REMARKS
NORFOLK        MOSUNNY   25  19  78 N8        30.27F WCI  16
ALBION         CLOUDY    26  20  78 CALM      30.27F
BLAIR          CLOUDY    26  22  85 NW6       30.29R WCI  19
COLUMBUS       CLOUDY    25  21  85 NW7       30.29F WCI  17
FREMONT        PTSUNNY   28  23  82 NW5       30.30F WCI  22
TEKAMAH        CLOUDY    26  21  81 NW10      30.31F WCI  16
WAYNE          CLOUDY    23  21  93 NW8       30.30F WCI  14
$$

NEZ050>053-065>068-078-088>093-232200-
SOUTHEAST NEBRASKA

CITY           SKY/WX    TMP DP  RH WIND       PRES   REMARKS
LINCOLN        MOSUNNY   33  24  69 NE5       30.30S WCI  29
OMAHA EPPLEY   MOSUNNY   30  23  75 N9        30.31R WCI  22
BEATRICE       PTSUNNY   33  28  80 NE7       30.27F WCI  27
FALLS CITY     PTSUNNY   36  27  69 NE7       30.26F WCI  30
NEBRASKA CITY  MOSUNNY   32  29  88 N7        30.28F WCI  26
PLATTSMOUTH    PTSUNNY   31  26  81 NW5       30.29S WCI  26
$$

NEZ044-045-051>053-067-232200-
OMAHA AREA

CITY           SKY/WX    TMP DP  RH WIND       PRES   REMARKS
OMAHA EPPLEY   MOSUNNY   30  23  75 N9        30.31R WCI  22
BLAIR          CLOUDY    26  22  85 NW6       30.29R WCI  19
FREMONT        PTSUNNY   28  23  82 NW5       30.30F WCI  22
MILLARD        PTSUNNY   29  23  78 NW7       30.31R WCI  22
OFFUTT AFB     PTSUNNY   31  23  74 N3        30.30R
PLATTSMOUTH    PTSUNNY   31  26  81 NW5       30.29S WCI  26
WAHOO          FAIR      27  22  80 N8        30.30S WCI  19
$$




USA.gov is the U.S. government's official web portal to all federal, state and local government web resources and services.